Location: Drocourt
(49.0571°N, 1.7669°E)
Time: 14:08:51
(UTC+00:00)

Vanguard 2 Rocket - Pass Details

Date: 14 April 2024
Orbit: 556 x 3304 km, 32.9° (Epoch: 22 May)

Event Time Altitude Azimuth Distance (km) Brightness Sun altitude
Rises 00:32:47 0° 245° (WSW) 7,217 11.2 -30.8°
Enters shadow 00:35:28 - 242° (WSW) 6,717 11.0 -30.7°
Exits shadow 00:53:41 43° 192° (SSW) 3,845 9.5 -29.9°
Maximum altitude 00:55:57 44° 177° (S) 3,695 9.4 -29.8°
Drops below altitude 10° 01:09:28 10° 112° (ESE) 4,780 10.5 -29.1°
Sets 01:12:47 0° 106° (ESE) 5,453 11.0 -28.9°
